User: anonymous   Login
Location: Unspecified
(0.0000°N, 0.0000°E)
Time: 17:31:19
(UTC+00:00)
Language:

LQSAT - Orbit

View from above orbital plane
View from above orbital plane
View from above satellite
View from above satellite

Ground track
Ground track

The orbit data is extracted from the following two-line orbital elements,

1 40958U 15057A   21337.12369758  .00000099  00000-0  22819-4 0  9995
2 40958  97.7804  26.8216 0016905 230.6734 129.2995 14.73221951331070
Epoch (UTC): 03 December 2021 02:58:07
Eccentricity: 0.0016905
inclination: 97.7804°
perigee height: 639 km
apogee height: 662 km
right ascension of ascending node: 26.8216°
argument of perigee: 230.6734°
revolutions per day: 14.73221951
mean anomaly at epoch: 129.2995°
orbit number at epoch: 33107

The dashed part of the orbit path shows where the satellite is in the earth's shadow,  

DLR